Location: Unspecified
(52.4292°N, 19.3359°E)
Time: 15:03:40
(UTC+01:00)

A-11 Canister half - Pass Details

Date: 15 October 2025
Orbit: 1526 x 1682 km, 47.3° (Epoch: 13 November)

Event Time Altitude Azimuth Distance (km) Brightness Sun altitude
Exits shadow 01:21:34 10° 102° (ESE) 3,697 11.0 -44.8°
Drops below altitude 10° 01:21:39 10° 102° (ESE) 3,706 11.0 -44.8°
Sets 01:26:57 0° 77° (ENE) 4,681 11.9 -44.5°
